Location: ??????
(41.3164°N, 22.6615°E)
Time: 08:21:46
(UTC+00:00)

O/OREOS (USA 219) - Visible Passes

Search period start: 27 June 2022 00:00
Search period end: 07 July 2022 00:00
Orbit: 621 x 646 km, 72.0° (Epoch: 22 May)

Date Brightness Start Highest point End Pass type
(mag) Time Alt. Az. Time Alt. Az. Time Alt. Az.
27 Jun ? 01:01:15 10° NW 01:04:50 23° WSW 01:05:04 23° WSW visible
27 Jun ? 22:07:15 10° NE 22:07:36 10° NE 22:07:58 10° NE visible
27 Jun ? 23:43:11 10° NNW 23:47:49 79° ENE 23:48:38 59° SE visible
28 Jun ? 22:26:45 10° N 22:30:09 20° NE 22:32:15 15° E visible
29 Jun ? 00:05:24 10° NW 00:09:40 45° WSW 00:09:40 45° WSW visible
29 Jun ? 22:48:08 10° N 22:52:30 40° ENE 22:53:22 36° E visible
30 Jun ? 00:28:13 10° NW 00:30:47 19° W 00:30:47 19° W visible
30 Jun ? 21:33:07 10° NNE 21:34:30 11° NE 21:35:54 10° ENE visible
30 Jun ? 23:10:00 10° NNW 23:14:33 87° N 23:14:33 87° N visible
01 Jul ? 21:53:26 10° N 21:57:01 22° ENE 21:58:22 19° E visible
01 Jul ? 23:32:16 10° NW 23:35:47 37° W 23:35:47 37° W visible
02 Jul ? 22:14:54 10° N 22:19:20 44° ENE 22:19:39 43° ENE visible
02 Jul ? 23:55:14 10° WNW 23:57:05 16° W 23:57:05 16° W visible
03 Jul ? 20:59:29 10° NNE 21:01:24 12° NE 21:03:19 10° ENE visible
03 Jul ? 22:36:48 10° NNW 22:40:59 72° NW 22:40:59 72° NW visible
04 Jul ? 21:20:08 10° N 21:23:53 24° ENE 21:24:56 22° ENE visible
04 Jul ? 22:59:09 10° NW 23:02:22 32° WNW 23:02:22 32° WNW visible
05 Jul ? 21:41:40 10° NNW 21:46:10 49° ENE 21:46:21 49° ENE visible
05 Jul ? 23:22:16 10° WNW 23:23:47 15° W 23:23:47 15° W visible
06 Jul ? 20:25:58 10° NNE 20:28:17 14° NE 20:30:22 11° E visible
06 Jul ? 22:03:38 10° NNW 22:07:48 67° WNW 22:07:48 67° WNW visible
